Time,TemperatureF,DewpointF,PressureIn,WindDirection,WindDirectionDegrees,WindSpeedMPH,WindSpeedGustMPH,Humidity,HourlyPrecipIn,Conditions,Clouds,dailyrainin,SoftwareType,DateUTC
2013-01-15 00:14:00,31.8,30.0,30.24,NE,54,0.0,-999.0,92,-99.99,,,0.00,weatherlink.com 1.10,2013-01-15 05:14:00,
2013-01-15 00:29:00,31.8,30.0,30.24,NE,52,2.0,-999.0,92,-99.99,,,0.00,weatherlink.com 1.10,2013-01-15 05:29:00,
2013-01-15 00:44:00,31.9,30.0,30.23,NE,51,0.0,-999.0,92,-99.99,,,0.00,weatherlink.com 1.10,2013-01-15 05:44:00,
2013-01-15 00:59:00,32.0,30.0,30.23,NE,49,0.0,-999.0,92,-99.99,,,0.00,weatherlink.com 1.10,2013-01-15 05:59:00,
2013-01-15 01:14:00,32.0,30.0,30.23,NNE,33,1.0,-999.0,92,-99.99,,,0.00,weatherlink.com 1.10,2013-01-15 06:14:00,
2013-01-15 01:29:00,32.1,30.0,30.23,NNE,18,4.0,-999.0,92,-99.99,,,0.00,weatherlink.com 1.10,2013-01-15 06:29:00,
2013-01-15 01:44:00,32.1,30.0,30.24,North,9,0.0,-999.0,91,-99.99,,,0.00,weatherlink.com 1.10,2013-01-15 06:44:00,
2013-01-15 01:59:00,32.1,30.0,30.24,NNE,32,1.0,-999.0,91,-99.99,,,0.00,weatherlink.com 1.10,2013-01-15 06:59:00,
2013-01-15 02:14:00,32.1,30.0,30.23,NNE,14,4.0,-999.0,90,-99.99,,,0.00,weatherlink.com 1.10,2013-01-15 07:14:00,
2013-01-15 02:29:00,32.2,30.0,30.24,NNE,18,2.0,-999.0,90,-99.99,,,0.00,weatherlink.com 1.10,2013-01-15 07:29:00,
2013-01-15 02:45:00,32.2,30.0,30.24,NNE,24,6.0,-999.0,90,-99.99,,,0.00,weatherlink.com 1.10,2013-01-15 07:45:00,
2013-01-15 03:00:00,32.3,30.0,30.24,NE,44,0.0,-999.0,89,-99.99,,,0.00,weatherlink.com 1.10,2013-01-15 08:00:00,
2013-01-15 03:15:00,32.3,30.0,30.24,NE,40,4.0,-999.0,89,-99.99,,,0.00,weatherlink.com 1.10,2013-01-15 08:15:00,
2013-01-15 03:30:00,32.3,30.0,30.25,NE,34,6.0,-999.0,89,-99.99,,,0.00,weatherlink.com 1.10,2013-01-15 08:30:00,
2013-01-15 03:45:00,32.3,29.0,30.25,NE,40,2.0,-999.0,88,-99.99,,,0.00,weatherlink.com 1.10,2013-01-15 08:45:00,
2013-01-15 04:00:00,32.2,29.0,30.25,NNE,24,6.0,-999.0,88,-99.99,,,0.00,weatherlink.com 1.10,2013-01-15 09:00:00,
2013-01-15 04:15:00,32.1,29.0,30.25,North,5,1.0,-999.0,87,-99.99,,,0.00,weatherlink.com 1.10,2013-01-15 09:15:00,
2013-01-15 04:30:00,32.0,29.0,30.25,NNE,23,3.0,-999.0,88,-99.99,,,0.00,weatherlink.com 1.10,2013-01-15 09:30:00,
2013-01-15 04:45:00,31.9,29.0,30.25,NNE,26,5.0,-999.0,88,-99.99,,,0.00,weatherlink.com 1.10,2013-01-15 09:45:00,
2013-01-15 05:00:00,31.8,28.0,30.25,NNE,32,1.0,-999.0,87,-99.99,,,0.00,weatherlink.com 1.10,2013-01-15 10:00:00,
2013-01-15 05:15:00,31.7,28.0,30.25,NE,44,9.0,-999.0,87,-99.99,,,0.00,weatherlink.com 1.10,2013-01-15 10:15:00,
2013-01-15 05:30:00,31.6,28.0,30.25,NNE,17,3.0,-999.0,87,-99.99,,,0.00,weatherlink.com 1.10,2013-01-15 10:30:00,
2013-01-15 05:45:00,31.5,28.0,30.26,NNE,28,4.0,-999.0,87,-99.99,,,0.00,weatherlink.com 1.10,2013-01-15 10:45:00,
2013-01-15 06:00:00,31.3,28.0,30.26,NNE,33,2.0,-999.0,87,-99.99,,,0.00,weatherlink.com 1.10,2013-01-15 11:00:00,
2013-01-15 06:15:00,31.2,28.0,30.27,East,86,5.0,-999.0,86,-99.99,,,0.00,weatherlink.com 1.10,2013-01-15 11:15:00,
2013-01-15 06:30:00,31.1,27.0,30.27,NNE,18,3.0,-999.0,86,-99.99,,,0.00,weatherlink.com 1.10,2013-01-15 11:30:00,
2013-01-15 06:45:00,31.1,27.0,30.28,NE,41,2.0,-999.0,86,-99.99,,,0.00,weatherlink.com 1.10,2013-01-15 11:45:00,
2013-01-15 07:00:00,31.0,27.0,30.29,NE,50,2.0,-999.0,86,-99.99,,,0.00,weatherlink.com 1.10,2013-01-15 12:00:00,
2013-01-15 07:30:00,31.1,27.0,30.29,NE,51,2.0,-999.0,86,-99.99,,,0.00,weatherlink.com 1.10,2013-01-15 12:30:00,
2013-01-15 07:45:00,31.1,28.0,30.28,NE,43,0.0,-999.0,87,-99.99,,,0.00,weatherlink.com 1.10,2013-01-15 12:45:00,
2013-01-15 08:00:00,31.2,28.0,30.29,East,80,2.0,-999.0,87,-99.99,,,0.00,weatherlink.com 1.10,2013-01-15 13:00:00,
2013-01-15 08:15:00,31.3,28.0,30.29,ENE,69,0.0,-999.0,87,-99.99,,,0.00,weatherlink.com 1.10,2013-01-15 13:15:00,
2013-01-15 08:30:00,31.5,28.0,30.30,ENE,69,1.0,-999.0,87,-99.99,,,0.00,weatherlink.com 1.10,2013-01-15 13:30:00,
2013-01-15 08:45:00,31.7,28.0,30.30,ENE,69,1.0,-999.0,87,-99.99,,,0.00,weatherlink.com 1.10,2013-01-15 13:45:00,
2013-01-15 09:00:00,31.9,29.0,30.30,ENE,65,2.0,-999.0,87,-99.99,,,0.00,weatherlink.com 1.10,2013-01-15 14:00:00,
2013-01-15 09:15:00,32.1,28.0,30.29,ENE,65,3.0,-999.0,86,-99.99,,,0.00,weatherlink.com 1.10,2013-01-15 14:15:00,
2013-01-15 09:30:00,32.3,29.0,30.29,NE,49,0.0,-999.0,86,-99.99,,,0.00,weatherlink.com 1.10,2013-01-15 14:30:00,
2013-01-15 09:45:00,32.5,29.0,30.29,East,84,1.0,-999.0,87,-99.99,,,0.00,weatherlink.com 1.10,2013-01-15 14:45:00,
2013-01-15 10:00:00,32.7,29.0,30.28,ENE,74,1.0,-999.0,87,-99.99,,,0.00,weatherlink.com 1.10,2013-01-15 15:00:00,
2013-01-15 10:15:00,32.9,29.0,30.27,NE,39,3.0,-999.0,86,-99.99,,,0.00,weatherlink.com 1.10,2013-01-15 15:15:00,
2013-01-15 10:30:00,33.2,30.0,30.27,ENE,71,3.0,-999.0,86,-99.99,,,0.00,weatherlink.com 1.10,2013-01-15 15:30:00,
2013-01-15 10:45:00,33.6,30.0,30.26,East,88,3.0,-999.0,86,-99.99,,,0.00,weatherlink.com 1.10,2013-01-15 15:45:00,
2013-01-15 11:00:00,33.9,30.0,30.26,ENE,66,2.0,-999.0,86,-99.99,,,0.00,weatherlink.com 1.10,2013-01-15 16:00:00,
2013-01-15 11:15:00,34.1,30.0,30.23,ENE,63,3.0,-999.0,85,-99.99,,,0.00,weatherlink.com 1.10,2013-01-15 16:15:00,
2013-01-15 11:30:00,34.5,31.0,30.24,ENE,64,4.0,-999.0,85,-99.99,,,0.00,weatherlink.com 1.10,2013-01-15 16:30:00,
2013-01-15 11:45:00,34.8,30.0,30.22,NE,56,2.0,-999.0,84,-99.99,,,0.00,weatherlink.com 1.10,2013-01-15 16:45:00,
2013-01-15 12:00:00,35.1,30.0,30.23,NNE,13,2.0,-999.0,83,-99.99,,,0.00,weatherlink.com 1.10,2013-01-15 17:00:00,
2013-01-15 12:15:00,35.2,31.0,30.21,ENE,67,3.0,-999.0,83,-99.99,,,0.00,weatherlink.com 1.10,2013-01-15 17:15:00,
2013-01-15 12:30:00,35.3,30.0,30.18,ENE,64,10.0,-999.0,82,-99.99,,,0.00,weatherlink.com 1.10,2013-01-15 17:30:00,
2013-01-15 12:48:00,35.6,31.0,30.18,East,81,5.0,-999.0,82,-99.99,,,0.00,weatherlink.com 1.10,2013-01-15 17:48:00,
2013-01-15 13:01:00,35.6,30.0,30.18,East,98,5.0,-999.0,81,-99.99,,,0.00,weatherlink.com 1.10,2013-01-15 18:01:00,
2013-01-15 13:16:00,35.9,31.0,30.16,East,88,2.0,-999.0,82,-99.99,,,0.00,weatherlink.com 1.10,2013-01-15 18:16:00,
2013-01-15 13:31:00,36.1,31.0,30.16,ENE,62,2.0,-999.0,81,-99.99,,,0.00,weatherlink.com 1.10,2013-01-15 18:31:00,
2013-01-15 13:46:00,36.0,31.0,30.15,NE,54,5.0,-999.0,81,-99.99,,,0.00,weatherlink.com 1.10,2013-01-15 18:46:00,
2013-01-15 14:01:00,36.1,31.0,30.12,NNE,16,3.0,-999.0,81,-99.99,,,0.00,weatherlink.com 1.10,2013-01-15 19:01:00,
2013-01-15 14:16:00,35.9,31.0,30.12,ENE,61,0.0,-999.0,81,-99.99,,,0.00,weatherlink.com 1.10,2013-01-15 19:16:00,
2013-01-15 14:31:00,36.0,31.0,30.15,NE,50,0.0,-999.0,82,-99.99,,,0.01,weatherlink.com 1.10,2013-01-15 19:31:00,
2013-01-15 14:48:00,36.1,31.0,30.12,NNE,32,6.0,-999.0,81,-99.99,,,0.01,weatherlink.com 1.10,2013-01-15 19:48:00,
2013-01-15 15:01:00,36.0,31.0,30.10,East,82,6.0,-999.0,81,-99.99,,,0.01,weatherlink.com 1.10,2013-01-15 20:01:00,
2013-01-15 15:16:00,36.0,31.0,30.10,NE,51,3.0,-999.0,81,-99.99,,,0.01,weatherlink.com 1.10,2013-01-15 20:16:00,
2013-01-15 15:31:00,36.1,31.0,30.12,NE,51,3.0,-999.0,82,-99.99,,,0.01,weatherlink.com 1.10,2013-01-15 20:31:00,
2013-01-15 15:46:00,36.2,31.0,30.12,ENE,65,0.0,-999.0,81,-99.99,,,0.01,weatherlink.com 1.10,2013-01-15 20:46:00,
2013-01-15 16:01:00,36.2,32.0,30.14,NE,37,0.0,-999.0,83,-99.99,,,0.01,weatherlink.com 1.10,2013-01-15 21:01:00,
2013-01-15 16:16:00,35.8,32.0,30.14,NNE,28,0.0,-999.0,86,-99.99,,,0.01,weatherlink.com 1.10,2013-01-15 21:16:00,
2013-01-15 16:31:00,35.5,32.0,30.12,ENE,65,2.0,-999.0,87,-99.99,,,0.01,weatherlink.com 1.10,2013-01-15 21:31:00,
2013-01-15 16:46:00,35.3,32.0,30.14,ENE,65,0.0,-999.0,88,-99.99,,,0.01,weatherlink.com 1.10,2013-01-15 21:46:00,
2013-01-15 17:01:00,35.2,32.0,30.15,ENE,65,0.0,-999.0,89,-99.99,,,0.01,weatherlink.com 1.10,2013-01-15 22:01:00,
2013-01-15 17:16:00,35.2,33.0,30.13,ENE,59,0.0,-999.0,91,-99.99,,,0.01,weatherlink.com 1.10,2013-01-15 22:16:00,
2013-01-15 17:31:00,34.9,33.0,30.14,NNE,25,5.0,-999.0,91,-99.99,,,0.01,weatherlink.com 1.10,2013-01-15 22:31:00,
2013-01-15 17:46:00,34.4,32.0,30.14,NE,54,4.0,-999.0,91,-99.99,,,0.01,weatherlink.com 1.10,2013-01-15 22:46:00,
2013-01-15 18:01:00,34.1,32.0,30.16,North,355,3.0,-999.0,91,-99.99,,,0.01,weatherlink.com 1.10,2013-01-15 23:01:00,
2013-01-15 18:16:00,33.8,32.0,30.16,NE,37,3.0,-999.0,91,-99.99,,,0.01,weatherlink.com 1.10,2013-01-15 23:16:00,
2013-01-15 18:31:00,33.5,32.0,30.15,NNE,33,0.0,-999.0,92,-99.99,,,0.01,weatherlink.com 1.10,2013-01-15 23:31:00,
2013-01-15 18:46:00,33.3,31.0,30.13,NE,52,5.0,-999.0,92,-99.99,,,0.01,weatherlink.com 1.10,2013-01-15 23:46:00,
2013-01-15 19:01:00,33.3,31.0,30.11,ENE,57,0.0,-999.0,92,-99.99,,,0.01,weatherlink.com 1.10,2013-01-16 00:01:00,
2013-01-15 19:16:00,33.5,32.0,30.13,NE,53,0.0,-999.0,92,-99.99,,,0.01,weatherlink.com 1.10,2013-01-16 00:16:00,
2013-01-15 19:31:00,33.5,32.0,30.11,NE,49,0.0,-999.0,93,-99.99,,,0.01,weatherlink.com 1.10,2013-01-16 00:31:00,
2013-01-15 19:46:00,33.5,32.0,30.09,ENE,57,0.0,-999.0,93,-99.99,,,0.01,weatherlink.com 1.10,2013-01-16 00:46:00,
2013-01-15 20:01:00,33.5,32.0,30.10,NE,50,4.0,-999.0,93,-99.99,,,0.01,weatherlink.com 1.10,2013-01-16 01:01:00,
2013-01-15 20:16:00,33.6,32.0,30.09,NE,44,3.0,-999.0,93,-99.99,,,0.01,weatherlink.com 1.10,2013-01-16 01:16:00,
2013-01-15 20:31:00,33.6,32.0,30.11,NNE,14,3.0,-999.0,93,-99.99,,,0.01,weatherlink.com 1.10,2013-01-16 01:31:00,
2013-01-15 20:46:00,33.6,32.0,30.10,NNE,21,1.0,-999.0,93,-99.99,,,0.01,weatherlink.com 1.10,2013-01-16 01:46:00,
2013-01-15 21:01:00,33.7,32.0,30.12,North,5,2.0,-999.0,93,-99.99,,,0.01,weatherlink.com 1.10,2013-01-16 02:01:00,
2013-01-15 21:18:00,33.7,32.0,30.08,ENE,65,1.0,-999.0,93,-99.99,,,0.01,weatherlink.com 1.10,2013-01-16 02:18:00,
2013-01-15 21:31:00,33.7,32.0,30.04,ENE,73,0.0,-999.0,94,-99.99,,,0.01,weatherlink.com 1.10,2013-01-16 02:31:00,
2013-01-15 21:46:00,33.8,32.0,30.05,East,82,0.0,-999.0,94,-99.99,,,0.01,weatherlink.com 1.10,2013-01-16 02:46:00,
2013-01-15 22:01:00,33.8,32.0,30.06,East,82,0.0,-999.0,94,-99.99,,,0.01,weatherlink.com 1.10,2013-01-16 03:01:00,
2013-01-15 22:16:00,33.9,32.0,30.08,East,81,0.0,-999.0,94,-99.99,,,0.01,weatherlink.com 1.10,2013-01-16 03:16:00,
2013-01-15 22:31:00,34.0,33.0,30.05,East,81,0.0,-999.0,94,-99.99,,,0.01,weatherlink.com 1.10,2013-01-16 03:31:00,
2013-01-15 22:46:00,34.0,33.0,30.04,East,81,0.0,-999.0,94,-99.99,,,0.01,weatherlink.com 1.10,2013-01-16 03:46:00,
2013-01-15 23:01:00,34.0,33.0,30.04,East,81,0.0,-999.0,94,-99.99,,,0.01,weatherlink.com 1.10,2013-01-16 04:01:00,
2013-01-15 23:16:00,34.3,33.0,30.03,NE,42,0.0,-999.0,94,-99.99,,,0.01,weatherlink.com 1.10,2013-01-16 04:16:00,
2013-01-15 23:31:00,34.2,33.0,29.98,NE,46,0.0,-999.0,94,-99.99,,,0.01,weatherlink.com 1.10,2013-01-16 04:31:00,
2013-01-15 23:46:00,34.2,33.0,29.97,SE,138,0.0,-999.0,94,-99.99,,,0.01,weatherlink.com 1.10,2013-01-16 04:46:00,